St. Cloud, MN

2:47 AM CDT on June 29, 2017 (GMT -0500)
Saint Cloud Regional

Weather History for KSTC - December, 2013

Change the Weather History Date:

Wednesday, December 25, 2013

  Actual Average Record
Temperature  
Mean Temperature 16 °F 13 °F  
Max Temperature 23 °F 22 °F 47 °F (1922)
Min Temperature 9 °F 4 °F -26 °F (2000)
Degree Days  
Heating Degree Days 49 52  
Month to date heating degree days 1453 1208  
Since 1 July heating degree days 3326 3133  
Cooling Degree Days 0 0  
Month to date cooling degree days 0 0  
Year to date cooling degree days 578 465  
Moisture  
Dew Point 9 °F    
Average Humidity 80    
Maximum Humidity 92    
Minimum Humidity 67    
Precipitation  
Precipitation 0.01 in 0.03 in 1.07 in (1893)
Month to date precipitation 1.70 0.67  
Year to date precipitation 28.77 27.58  
Snow  
Snow 0.20 in 0.30 in 4.20 in (1950)
Month to date snowfall 19.3 7.5  
Since 1 July snowfall 22.9 16.7  
Snow Depth 11.00 in    
Sea Level Pressure  
Sea Level Pressure 30.11 in    
Wind  
Wind Speed 7 mph (WSW)    
Max Wind Speed 22 mph    
Max Gust Speed 28 mph    
Visibility 8 miles    
Events Snow    
T = Trace of Precipitation, MM = Missing Value Source: NWS Daily Summary

Daily Weather History Graph

Daily Weather History Graph

Search for Another Location

Airport or City:

Trip Planner

Search our weather history database for the weather conditions in past years. The results will help you decide how hot, cold, wet, or windy it might be!

Date:

Astronomy

Dec. 25, 2013 Rise Set
Actual Time 7:55 AM CST 4:37 PM CST
Civil Twilight 7:21 AM CST 5:12 PM CST
Nautical Twilight 6:43 AM CST 5:49 PM CST
Astronomical Twilight 6:07 AM CST 6:25 PM CST
Moon 12:07 AM CST (12/25) 11:57 AM CST (12/25)
Length of Visible Light 9h 51m
Length of Day
8h 42m
Waning Gibbous, 48% of the Moon is Illuminated
Dec 25
Waning Gibbous
Jan 1
New
Jan 7
First Quarter
Jan 15
Full
Jan 23
Last Quarter

Hourly Weather History & Observations

Time (CST) Temp. Windchill Dew Point Humidity Pressure Visibility Wind Dir Wind Speed Gust Speed Precip Events Conditions
12:53 AM 9.0 °F -3.2 °F 6.1 °F 88% 30.17 in 6.0 mi SSW 8.1 mph - 0.00 in   Overcast
1:19 AM 8.6 °F 0.1 °F 6.8 °F 92% 30.07 in 8.0 mi SSW 4.6 mph - N/A   Overcast
1:53 AM 9.0 °F -2.2 °F 6.1 °F 88% 30.15 in 8.0 mi South 6.9 mph - N/A   Overcast
2:29 AM 10.4 °F -0.4 °F 6.8 °F 85% 30.05 in 10.0 mi South 6.9 mph - N/A   Overcast
2:53 AM 10.0 °F 1.8 °F 7.0 °F 87% 30.14 in 10.0 mi South 4.6 mph - N/A   Overcast
3:53 AM 10.9 °F 2.9 °F 8.1 °F 88% 30.14 in 9.0 mi South 4.6 mph - N/A   Overcast
4:15 AM 10.4 °F 0.8 °F 8.6 °F 92% 30.02 in 9.0 mi SSW 5.8 mph - N/A   Overcast
4:34 AM 10.4 °F 4.0 °F 8.6 °F 92% 30.02 in 5.0 mi SSW 3.5 mph - N/A   Overcast
4:44 AM 10.4 °F 4.0 °F 8.6 °F 92% 30.03 in 6.0 mi SSW 3.5 mph - N/A   Overcast
4:53 AM 12.0 °F 5.9 °F 9.0 °F 88% 30.12 in 7.0 mi South 3.5 mph - 0.00 in Snow Light Snow
5:21 AM 12.2 °F - 10.4 °F 92% 30.02 in 4.0 mi Calm Calm - 0.00 in Snow Light Snow
5:53 AM 12.0 °F 5.9 °F 10.0 °F 92% 30.12 in 5.0 mi South 3.5 mph - 0.00 in Snow Light Snow
6:01 AM 12.2 °F 4.3 °F 10.4 °F 92% 30.03 in 6.0 mi South 4.6 mph - 0.00 in   Overcast
6:53 AM 12.9 °F - 10.0 °F 88% 30.12 in 5.0 mi Calm Calm - 0.00 in Snow Light Snow
7:53 AM 12.9 °F 5.2 °F 10.0 °F 88% 30.11 in 6.0 mi SE 4.6 mph - 0.00 in   Overcast
8:17 AM 12.2 °F 6.1 °F 10.4 °F 92% 30.02 in 5.0 mi SSE 3.5 mph - N/A   Overcast
8:53 AM 14.0 °F - 10.9 °F 88% 30.12 in 3.0 mi Calm Calm - 0.01 in Snow Light Snow
9:53 AM 15.1 °F - 12.0 °F 88% 30.12 in 5.0 mi Calm Calm - 0.00 in   Overcast
10:53 AM 19.9 °F 12.1 °F 15.1 °F 81% 30.13 in 5.0 mi WNW 5.8 mph - N/A   Haze
11:32 AM 21.2 °F 10.1 °F 17.6 °F 86% 30.03 in 5.0 mi NW 10.4 mph - N/A   Overcast
11:53 AM 21.9 °F 11.0 °F 17.1 °F 82% 30.11 in 7.0 mi NW 10.4 mph - N/A   Overcast
12:05 PM 23.0 °F 12.4 °F 17.6 °F 80% 30.02 in 8.0 mi NW 10.4 mph - N/A   Overcast
12:53 PM 21.9 °F 6.9 °F 14.0 °F 72% 30.12 in 10.0 mi NW 19.6 mph - N/A   Overcast
1:25 PM 21.2 °F 7.8 °F 12.2 °F 68% 30.03 in 10.0 mi WNW 15.0 mph - N/A   Partly Cloudy
1:53 PM 19.9 °F 5.2 °F 10.9 °F 68% 30.13 in 10.0 mi NW 17.3 mph - N/A   Scattered Clouds
2:53 PM 19.0 °F 3.2 °F 10.0 °F 68% 30.14 in 10.0 mi NW 19.6 mph - N/A   Clear
3:53 PM 17.1 °F 1.5 °F 8.1 °F 68% 30.17 in 10.0 mi NW 17.3 mph - N/A   Clear
4:53 PM 15.1 °F 2.5 °F 6.1 °F 68% 30.18 in 10.0 mi WNW 10.4 mph - N/A   Clear
5:53 PM 10.9 °F 0.2 °F 5.0 °F 77% 30.19 in 10.0 mi West 6.9 mph - N/A   Clear
6:53 PM 10.9 °F -0.8 °F 5.0 °F 77% 30.20 in 10.0 mi West 8.1 mph - N/A   Mostly Cloudy
7:53 PM 10.9 °F 1.4 °F 5.0 °F 77% 30.19 in 10.0 mi West 5.8 mph - N/A   Overcast
8:53 PM 12.0 °F 1.5 °F 5.0 °F 73% 30.18 in 10.0 mi WNW 6.9 mph - N/A   Overcast
9:25 PM 12.2 °F 1.7 °F 6.8 °F 79% 30.09 in 10.0 mi West 6.9 mph - N/A   Overcast
9:53 PM 12.9 °F 2.6 °F 6.1 °F 74% 30.18 in 10.0 mi WNW 6.9 mph - N/A   Overcast
10:53 PM 14.0 °F - 7.0 °F 74% 30.17 in 5.0 mi Calm Calm - 0.00 in Snow Light Snow
11:32 PM 12.2 °F 6.1 °F 8.6 °F 85% 30.08 in 8.0 mi SSW 3.5 mph - 0.00 in Snow Light Snow
11:53 PM 12.9 °F 3.8 °F 8.1 °F 81% 30.16 in 7.0 mi South 5.8 mph - 0.00 in Snow Light Snow